Location: *
(2.5500°S, 65.9667°W)
Time: 06:56:47
(UTC+00:00)

Explorer 7 - Pass Details

Date: 19 April 2024
Orbit: 467 x 625 km, 50.3° (Epoch: 26 May)

Event Time Altitude Azimuth Distance (km) Brightness Sun altitude
Rises 11:28:41 0° 189° (S) 2,694 10.1 15.6°
Reaches altitude 10° 11:31:35 10° 167° (SSE) 1,836 9.6 16.3°
Maximum altitude 11:34:14 16° 127° (SE) 1,503 9.8 16.9°
Drops below altitude 10° 11:36:58 10° 88° (E) 1,895 11.7 17.6°
Sets 11:40:00 0° 67° (ENE) 2,825 12.0 18.3°
